This is the latest recevied weather packets stored in our database for station/object N2PUI. If no packets are shown the sender has not sent any weather packets the latest 1 day(s).
| Time | Temp. | Humidity | Pressure | Rain* | Wind** | Luminosity | Snow |
|---|---|---|---|---|---|---|---|
| 1778017053 | 18.33° C | 76% | 1006.8 hPa | 0 mm | 0.45 m/s, 161° | 203 W/m² | - |
| 1778016750 | 18.33° C | 79% | 1006.7 hPa | 0 mm | 0.45 m/s, 146° | 206 W/m² | - |
| 1778016446 | 17.78° C | 81% | 1006.4 hPa | 0 mm | 0.45 m/s, 133° | 269 W/m² | - |
| 1778016144 | 17.22° C | 82% | 1006.4 hPa | 0 mm | 0 m/s | 314 W/m² | - |
| 1778015841 | 16.67° C | 83% | 1006.8 hPa | 0 mm | 1.79 m/s, 131° | 289 W/m² | - |
| 1778015538 | 16.11° C | 85% | 1006.7 hPa | 0 mm | 1.34 m/s, 134° | 258 W/m² | - |
| 1778015234 | 16.67° C | 88% | 1006.7 hPa | 0 mm | 0.45 m/s, 164° | 245 W/m² | - |
| 1778014931 | 16.11° C | 88% | 1006.4 hPa | 0 mm | 1.34 m/s, 135° | 292 W/m² | - |
| 1778014628 | 16.11° C | 88% | 1006.7 hPa | 0 mm | 1.34 m/s, 163° | 276 W/m² | - |
| 1778014327 | 16.11° C | 89% | 1006.6 hPa | 0 mm | 0.45 m/s, 157° | 314 W/m² | - |
| 1778014023 | 16.11° C | 89% | 1006.7 hPa | 0 mm | 0.45 m/s, 155° | 351 W/m² | - |
| 1778013720 | 15.56° C | 89% | 1006.8 hPa | 0 mm | 0.45 m/s, 155° | 186 W/m² | - |
| 1778013412 | 15.56° C | 88% | 1006.9 hPa | 0 mm | 0.45 m/s, 155° | 107 W/m² | - |
| 1778013108 | 15.56° C | 88% | 1007 hPa | 0 mm | 0 m/s | 67 W/m² | - |
| 1778012804 | 15.56° C | 88% | 1007.1 hPa | 0 mm | 1.79 m/s, 291° | 85 W/m² | - |
| 1778012501 | 15.56° C | 87% | 1007.3 hPa | 0 mm | 0.89 m/s, 18° | 108 W/m² | - |
| 1778012197 | 15.56° C | 87% | 1007.6 hPa | 0 mm | 1.34 m/s, 318° | 122 W/m² | - |
| 1778011895 | 15.56° C | 87% | 1007.7 hPa | 1.78 mm | 1.79 m/s, 328° | 107 W/m² | - |
| 1778011593 | 15.56° C | 86% | 1007.9 hPa | 4.83 mm | 2.68 m/s, 273° | 140 W/m² | - |
| 1778011290 | 16.11° C | 85% | 1008.1 hPa | 4.83 mm | 2.24 m/s, 259° | 96 W/m² | - |
| 1778010986 | 16.11° C | 84% | 1008.6 hPa | 1.78 mm | 3.13 m/s, 267° | 45 W/m² | - |
| 1778010683 | 16.11° C | 83% | 1008.3 hPa | 1.27 mm | 3.58 m/s, 187° | 31 W/m² | - |
| 1778010380 | 16.67° C | 82% | 1008.1 hPa | 4.32 mm | 5.81 m/s, 314° | 44 W/m² | - |
| 1778010076 | 17.78° C | 77% | 1007.6 hPa | 3.05 mm | 2.68 m/s, 296° | 57 W/m² | - |
| 1778009773 | 21.11° C | 62% | 1007 hPa | 0 mm | 4.02 m/s, 256° | 54 W/m² | - |
* Rain latest hour (hover to see other rain measurements)
** Current wind speed in m/s (hover to see current wind gust speed)